Location: *
(43.0833°N, 13.0500°E)
Time: 15:19:19
(UTC+00:00)

Cosmos 1515 Rocket - Pass Details

Date: 15 November 2019
Orbit: 605 x 631 km, 82.5° (Epoch: 06 December)

Event Time Altitude Azimuth Distance (km) Brightness Sun altitude
Rises 18:01:36 0° 190° (S) 2,891 7.1 -25.0°
Reaches altitude 10° 18:03:49 10° 191° (S) 1,985 6.3 -25.4°
Enters shadow 18:07:03 48° 201° (SSW) 811 4.2 -26.0°
